TimeCST,TemperatureF,Dew PointF,Humidity,Sea Level PressureIn,VisibilityMPH,Wind Direction,Wind SpeedMPH,Gust SpeedMPH,PrecipitationIn,Events,Conditions,WindDirDegrees,DateUTC
12:15 AM,36.5,9.1,32,30.24,10.0,WNW,6.9,-,N/A,,Clear,290,2012-12-20 06:15:00
12:35 AM,36.5,7.7,30,30.26,10.0,NW,6.9,-,N/A,,Clear,320,2012-12-20 06:35:00
12:55 AM,37.6,6.6,28,30.27,10.0,NNW,11.5,-,N/A,,Clear,330,2012-12-20 06:55:00
1:15 AM,40.3,7.5,26,30.29,10.0,North,15.0,20.7,N/A,,Clear,10,2012-12-20 07:15:00
1:35 AM,38.5,12.2,34,30.30,10.0,North,13.8,20.7,N/A,,Clear,10,2012-12-20 07:35:00
1:55 AM,37.0,12.2,36,30.31,10.0,North,11.5,17.3,N/A,,Clear,360,2012-12-20 07:55:00
2:15 AM,36.0,11.8,37,30.33,10.0,North,9.2,-,N/A,,Clear,10,2012-12-20 08:15:00
2:35 AM,34.9,11.1,37,30.34,10.0,North,5.8,-,N/A,,Clear,360,2012-12-20 08:35:00
2:55 AM,33.8,10.8,38,30.35,10.0,Calm,Calm,-,N/A,,Clear,0,2012-12-20 08:55:00
3:15 AM,32.5,11.3,41,30.35,10.0,Calm,Calm,-,N/A,,Clear,0,2012-12-20 09:15:00
3:35 AM,30.0,10.0,43,30.37,10.0,WNW,4.6,-,N/A,,Clear,300,2012-12-20 09:35:00
3:55 AM,27.7,9.1,46,30.38,10.0,WNW,6.9,-,N/A,,Clear,300,2012-12-20 09:55:00
4:15 AM,25.2,8.4,49,30.39,10.0,WSW,8.1,-,N/A,,Clear,250,2012-12-20 10:15:00
4:35 AM,25.2,8.4,49,30.39,10.0,West,8.1,-,N/A,,Clear,280,2012-12-20 10:35:00
4:55 AM,24.8,8.6,50,30.40,10.0,West,10.4,-,N/A,,Clear,280,2012-12-20 10:55:00
5:15 AM,28.8,10.2,46,30.40,10.0,WNW,6.9,-,N/A,,Clear,300,2012-12-20 11:15:00
5:35 AM,27.0,9.5,48,30.42,10.0,WNW,5.8,-,N/A,,Clear,290,2012-12-20 11:35:00
5:55 AM,25.5,8.8,49,30.43,10.0,WSW,5.8,-,N/A,,Clear,250,2012-12-20 11:55:00
6:15 AM,24.6,7.3,48,30.44,10.0,SW,6.9,-,N/A,,Clear,230,2012-12-20 12:15:00
6:35 AM,22.1,5.9,50,30.44,10.0,SW,8.1,-,N/A,,Clear,230,2012-12-20 12:35:00
6:55 AM,21.4,5.7,51,30.46,10.0,WSW,6.9,-,N/A,,Clear,240,2012-12-20 12:55:00
7:15 AM,21.2,5.4,51,30.46,10.0,West,5.8,-,N/A,,Clear,260,2012-12-20 13:15:00
7:35 AM,21.4,5.2,50,30.47,10.0,WSW,5.8,-,N/A,,Clear,240,2012-12-20 13:35:00
7:55 AM,20.1,4.6,51,30.49,10.0,SW,4.6,-,N/A,,Clear,220,2012-12-20 13:55:00
8:15 AM,20.3,4.8,51,30.50,10.0,SW,4.6,-,N/A,,Clear,230,2012-12-20 14:15:00
8:35 AM,21.9,5.0,48,30.51,10.0,SW,3.5,-,N/A,,Clear,220,2012-12-20 14:35:00
8:55 AM,25.3,5.9,44,30.51,7.0,Calm,Calm,-,N/A,,Clear,0,2012-12-20 14:55:00
9:15 AM,29.3,6.6,38,30.52,10.0,Calm,Calm,-,N/A,,Clear,0,2012-12-20 15:15:00
9:35 AM,33.4,7.7,34,30.53,10.0,SSW,3.5,-,N/A,,Clear,210,2012-12-20 15:35:00
9:55 AM,36.1,7.5,30,30.54,10.0,SSW,5.8,-,N/A,,Clear,200,2012-12-20 15:55:00
10:35 AM,38.3,5.9,26,30.54,10.0,South,6.9,-,N/A,,Clear,190,2012-12-20 16:35:00
10:55 AM,38.7,3.9,23,30.54,10.0,SE,3.5,-,N/A,,Clear,130,2012-12-20 16:55:00
11:15 AM,40.3,3.7,22,30.53,10.0,SSW,5.8,-,N/A,,Clear,210,2012-12-20 17:15:00
11:35 AM,41.9,3.7,21,30.53,10.0,South,3.5,-,N/A,,Clear,180,2012-12-20 17:35:00
11:55 AM,42.8,3.2,19,30.52,10.0,South,6.9,-,N/A,,Clear,180,2012-12-20 17:55:00
12:15 PM,43.3,2.8,19,30.51,10.0,SSE,8.1,-,N/A,,Clear,150,2012-12-20 18:15:00
12:35 PM,44.2,3.7,19,30.50,10.0,SE,8.1,-,N/A,,Clear,130,2012-12-20 18:35:00
1:55 PM,47.3,6.6,19,30.45,10.0,SSW,5.8,-,N/A,,Clear,200,2012-12-20 19:55:00
2:15 PM,48.2,6.3,18,30.44,10.0,SSE,3.5,-,N/A,,Clear,160,2012-12-20 20:15:00
2:35 PM,48.6,6.3,18,30.44,10.0,Calm,Calm,-,N/A,,Clear,0,2012-12-20 20:35:00
2:55 PM,48.2,6.3,18,30.43,10.0,Calm,Calm,-,N/A,,Clear,0,2012-12-20 20:55:00
3:15 PM,49.1,6.6,18,30.42,10.0,Calm,Calm,-,N/A,,Clear,0,2012-12-20 21:15:00
4:15 PM,50.2,6.4,17,30.42,10.0,Calm,Calm,-,N/A,,Clear,0,2012-12-20 22:15:00
4:35 PM,50.2,6.6,17,30.41,10.0,Calm,Calm,-,N/A,,Clear,0,2012-12-20 22:35:00
4:55 PM,49.5,5.9,17,30.41,10.0,Calm,Calm,-,N/A,,Clear,0,2012-12-20 22:55:00
5:35 PM,48.2,5.5,18,30.40,10.0,East,3.5,-,N/A,,Clear,90,2012-12-20 23:35:00
5:55 PM,45.1,4.6,19,30.41,10.0,ESE,3.5,-,N/A,,Clear,110,2012-12-20 23:55:00
6:15 PM,43.7,4.6,20,30.41,10.0,Calm,Calm,-,N/A,,Clear,0,2012-12-21 00:15:00
6:35 PM,41.0,4.1,22,30.41,10.0,Calm,Calm,-,N/A,,Clear,0,2012-12-21 00:35:00
6:55 PM,39.7,4.1,23,30.42,10.0,Calm,Calm,-,N/A,,Clear,0,2012-12-21 00:55:00
7:35 PM,38.1,4.3,24,30.43,10.0,East,4.6,-,N/A,,Clear,100,2012-12-21 01:35:00
7:55 PM,35.4,3.9,27,30.43,10.0,East,4.6,-,N/A,,Clear,80,2012-12-21 01:55:00
8:15 PM,35.1,4.1,27,30.43,10.0,East,4.6,-,N/A,,Clear,90,2012-12-21 02:15:00
8:35 PM,34.3,4.5,29,30.44,10.0,East,3.5,-,N/A,,Clear,80,2012-12-21 02:35:00
8:55 PM,33.1,4.1,29,30.44,10.0,East,3.5,-,N/A,,Clear,80,2012-12-21 02:55:00
9:15 PM,32.0,3.9,31,30.44,10.0,Calm,Calm,-,N/A,,Clear,0,2012-12-21 03:15:00
9:35 PM,31.6,3.2,30,30.45,10.0,Calm,Calm,-,N/A,,Clear,0,2012-12-21 03:35:00
9:55 PM,31.6,3.4,30,30.45,10.0,Calm,Calm,-,N/A,,Clear,0,2012-12-21 03:55:00
10:15 PM,30.7,2.5,30,30.44,10.0,Calm,Calm,-,N/A,,Clear,0,2012-12-21 04:15:00
10:35 PM,28.0,2.1,33,30.45,10.0,South,3.5,-,N/A,,Clear,190,2012-12-21 04:35:00
10:55 PM,27.1,1.9,34,30.45,10.0,Calm,Calm,-,N/A,,Clear,0,2012-12-21 04:55:00
11:15 PM,23.7,-0.8,35,30.45,10.0,WSW,4.6,-,N/A,,Clear,240,2012-12-21 05:15:00
11:35 PM,22.8,-1.1,35,30.45,10.0,West,3.5,-,N/A,,Clear,260,2012-12-21 05:35:00
11:55 PM,23.9,0.3,36,30.45,10.0,Calm,Calm,-,N/A,,Clear,0,2012-12-21 05:55:00